UAE8VR OMDB-EPKT

Flight info

Callsign UAE8VR
Flight time N/A
Altitude 30000
Route ANVIX R401 GIDIS G783 VAVIM DCT PEKEM DCT MEDPO DCT IVONU DCT GAS G662 NIMAR/N0498F320 Y415 DEESA DCT KARIK L550 GENIV L324 LAKTO DCT OTHON UN128 LMO DCT ATFIR DCT LOMOS DCT NEKUL DCT BUXLE DCT MEGIK DCT KEKED DCT LENOV
Aircraft B77W/H-SDE1E2E3FGHIJ2J3J4J5M1RWXY/LB1D1

Departure

Time 2026-04-26 13:42
Airport Dubai International Airport (OMDB)

Arrival

Time N/A
Airport Katowice Wojciech Korfanty International Airport (EPKT)
Time Latitude Longitude Altitude Speed Heading
2026-04-26 12:50 25.24426 55.36870 26 ft 0 kts 76°
2026-04-26 13:26 25.24425 55.36862 31 ft 3 kts 81°
2026-04-26 13:26 25.24423 55.36839 28 ft 3 kts 81°
2026-04-26 13:27 25.24420 55.36820 31 ft 3 kts 77°
2026-04-26 13:27 25.24415 55.36797 31 ft 3 kts 77°
2026-04-26 13:27 25.24410 55.36774 31 ft 3 kts 77°
2026-04-26 13:27 25.24406 55.36751 31 ft 3 kts 78°
2026-04-26 13:28 25.24401 55.36728 31 ft 3 kts 78°
2026-04-26 13:28 25.24397 55.36705 31 ft 3 kts 78°
2026-04-26 13:28 25.24392 55.36682 31 ft 3 kts 78°
2026-04-26 13:28 25.24388 55.36659 31 ft 3 kts 78°
2026-04-26 13:29 25.24384 55.36636 31 ft 3 kts 79°
2026-04-26 13:29 25.24381 55.36621 31 ft 3 kts 79°
2026-04-26 13:29 25.24377 55.36594 30 ft 3 kts 79°
2026-04-26 13:29 25.24373 55.36573 31 ft 1 kts 79°
2026-04-26 13:33 25.24374 55.36577 31 ft 2 kts 79°
2026-04-26 13:33 25.24378 55.36602 31 ft 5 kts 79°
2026-04-26 13:33 25.24384 55.36650 31 ft 8 kts 87°
2026-04-26 13:33 25.24375 55.36718 38 ft 10 kts 108°
2026-04-26 13:34 25.24337 55.36796 30 ft 13 kts 122°
2026-04-26 13:34 25.24285 55.36888 29 ft 15 kts 122°
2026-04-26 13:34 25.24231 55.36985 30 ft 15 kts 122°
2026-04-26 13:34 25.24195 55.37049 30 ft 15 kts 122°
2026-04-26 13:35 25.24122 55.37178 28 ft 15 kts 122°
2026-04-26 13:35 25.24068 55.37275 29 ft 15 kts 122°
2026-04-26 13:35 25.24013 55.37371 31 ft 15 kts 122°
2026-04-26 13:35 25.23966 55.37472 27 ft 15 kts 104°
2026-04-26 13:36 25.23989 55.37580 30 ft 15 kts 52°
2026-04-26 13:36 25.24072 55.37645 29 ft 15 kts 31°
2026-04-26 13:36 25.24161 55.37704 29 ft 15 kts 31°
2026-04-26 13:36 25.24248 55.37764 29 ft 15 kts 31°
2026-04-26 13:37 25.24317 55.37811 30 ft 7 kts 33°
2026-04-26 13:37 25.24346 55.37833 26 ft 2 kts 34°
2026-04-26 13:37 25.24348 55.37834 26 ft 0 kts 34°
2026-04-26 13:37 25.24363 55.37845 27 ft 8 kts 34°
2026-04-26 13:38 25.24441 55.37904 29 ft 19 kts 34°
2026-04-26 13:38 25.24548 55.37986 28 ft 18 kts 34°
2026-04-26 13:38 25.24629 55.38045 28 ft 8 kts 32°
2026-04-26 13:38 25.24637 55.38050 28 ft 0 kts 32°
2026-04-26 13:39 25.24642 55.38054 28 ft 2 kts 32°
2026-04-26 13:39 25.24663 55.38068 29 ft 5 kts 32°
2026-04-26 13:40 25.24697 55.38091 30 ft 7 kts 31°
2026-04-26 13:40 25.24739 55.38119 31 ft 6 kts 30°
2026-04-26 13:40 25.24763 55.38112 31 ft 4 kts 315°
2026-04-26 13:40 25.24773 55.38089 31 ft 0 kts 298°
2026-04-26 13:41 25.24776 55.38084 30 ft 7 kts 298°
2026-04-26 13:41 25.24922 55.37816 30 ft 77 kts 302°
2026-04-26 13:41 25.25322 55.37097 30 ft 141 kts 301°
2026-04-26 13:41 25.25933 55.35998 34 ft 191 kts 302°
2026-04-26 13:42 25.26640 55.34740 545 ft 193 kts 300°
2026-04-26 13:42 25.27338 55.33468 1107 ft 194 kts 300°
2026-04-26 13:42 25.28041 55.32180 1626 ft 197 kts 301°
2026-04-26 13:42 25.28754 55.30896 2145 ft 194 kts 302°
2026-04-26 13:43 25.29264 55.29554 2540 ft 193 kts 275°
2026-04-26 13:43 25.28974 55.28114 2804 ft 196 kts 248°
2026-04-26 13:43 25.28370 55.26775 3206 ft 193 kts 248°
2026-04-26 13:43 25.27795 55.25420 3495 ft 197 kts 249°
2026-04-26 13:44 25.27216 55.24028 3775 ft 201 kts 249°
2026-04-26 13:44 25.26626 55.22624 4149 ft 201 kts 249°
2026-04-26 13:44 25.26039 55.21217 4526 ft 204 kts 249°
2026-04-26 13:44 25.25421 55.19749 4708 ft 218 kts 249°
2026-04-26 13:45 25.24744 55.18191 4905 ft 232 kts 239°
2026-04-26 13:45 25.23530 55.16944 5088 ft 252 kts 207°
2026-04-26 13:45 25.21739 55.16606 5227 ft 273 kts 179°
2026-04-26 13:45 25.19857 55.16940 5675 ft 279 kts 160°
2026-04-26 13:46 25.18208 55.18093 6061 ft 288 kts 134°
2026-04-26 13:46 25.17078 55.19956 6297 ft 299 kts 113°
2026-04-26 13:46 25.16181 55.22045 6748 ft 300 kts 117°
2026-04-26 13:46 25.15195 55.24087 7028 ft 305 kts 118°
2026-04-26 13:47 25.14178 55.26165 7011 ft 308 kts 118°
2026-04-26 13:47 25.13165 55.28235 7008 ft 306 kts 118°
2026-04-26 13:47 25.12167 55.30292 7011 ft 303 kts 117°
2026-04-26 13:47 25.11179 55.32338 6966 ft 302 kts 117°
2026-04-26 13:48 25.10224 55.34406 7013 ft 303 kts 114°
2026-04-26 13:48 25.09361 55.36525 7554 ft 304 kts 113°
2026-04-26 13:48 25.08498 55.38663 8117 ft 306 kts 114°
2026-04-26 13:48 25.07621 55.40811 8687 ft 309 kts 114°
2026-04-26 13:49 25.06750 55.42984 9260 ft 311 kts 113°
2026-04-26 13:49 25.05904 55.45190 9801 ft 314 kts 112°
2026-04-26 13:49 25.05055 55.47419 10290 ft 319 kts 113°
2026-04-26 13:49 25.04180 55.49704 10454 ft 337 kts 113°
2026-04-26 13:50 25.03239 55.52148 10618 ft 356 kts 113°
2026-04-26 13:50 25.02244 55.54727 10752 ft 375 kts 114°
2026-04-26 13:50 25.01071 55.57402 11004 ft 389 kts 120°
2026-04-26 13:50 24.99674 55.59950 11441 ft 397 kts 123°
2026-04-26 13:51 24.98163 55.62576 11964 ft 405 kts 123°
2026-04-26 13:51 24.96699 55.65190 12609 ft 408 kts 122°
2026-04-26 13:51 24.95236 55.67870 13345 ft 407 kts 122°
2026-04-26 13:51 24.93516 55.70315 13819 ft 406 kts 141°
2026-04-26 13:52 24.91080 55.71866 14245 ft 407 kts 165°
2026-04-26 13:52 24.88306 55.72399 14780 ft 405 kts 180°
2026-04-26 13:52 24.85494 55.72220 15381 ft 404 kts 191°
2026-04-26 13:52 24.82779 55.71457 15976 ft 403 kts 205°
2026-04-26 13:53 24.80390 55.69895 16417 ft 400 kts 219°
2026-04-26 13:53 24.78200 55.67979 16849 ft 405 kts 220°
2026-04-26 13:53 24.75995 55.66023 17453 ft 407 kts 220°
2026-04-26 13:53 24.73783 55.64064 18054 ft 410 kts 220°
2026-04-26 13:54 24.71542 55.62097 18547 ft 414 kts 220°
2026-04-26 13:54 24.69281 55.60128 19063 ft 415 kts 220°
2026-04-26 13:54 24.67004 55.58160 19603 ft 417 kts 220°
2026-04-26 13:55 24.62419 55.54226 20694 ft 420 kts 220°
2026-04-26 13:55 24.60890 55.52918 21041 ft 421 kts 220°
2026-04-26 13:55 24.55461 55.48283 22256 ft 425 kts 220°
2026-04-26 13:56 24.53123 55.46288 22781 ft 427 kts 220°
2026-04-26 13:56 24.51565 55.44960 23126 ft 428 kts 220°
2026-04-26 13:56 24.49216 55.42957 23576 ft 430 kts 220°
2026-04-26 13:56 24.46844 55.40936 23888 ft 434 kts 220°
2026-04-26 13:57 24.44448 55.38895 24204 ft 437 kts 220°
2026-04-26 13:57 24.42037 55.36842 24535 ft 440 kts 220°
2026-04-26 13:57 24.39612 55.34779 24898 ft 442 kts 220°
2026-04-26 13:57 24.37173 55.32705 25229 ft 445 kts 220°
2026-04-26 13:58 24.34717 55.30618 25542 ft 448 kts 220°
2026-04-26 13:58 24.32244 55.28516 25860 ft 451 kts 220°
2026-04-26 13:58 24.29755 55.26403 26185 ft 454 kts 220°
2026-04-26 13:58 24.27253 55.24279 26517 ft 456 kts 220°
2026-04-26 13:59 24.24761 55.22114 26832 ft 457 kts 224°
2026-04-26 13:59 24.22491 55.19682 27124 ft 457 kts 231°
2026-04-26 13:59 24.20446 55.17006 27435 ft 458 kts 235°
2026-04-26 14:00 24.17075 55.07428 28243 ft 457 kts 267°
2026-04-26 14:00 24.17204 55.03959 28498 ft 457 kts 277°
2026-04-26 14:00 24.17509 55.01673 28606 ft 459 kts 278°
2026-04-26 14:01 24.18148 54.97034 28907 ft 462 kts 278°
2026-04-26 14:01 24.18624 54.93546 29183 ft 463 kts 278°
2026-04-26 14:01 24.19090 54.90055 29450 ft 464 kts 278°
2026-04-26 14:01 24.19545 54.86553 29722 ft 465 kts 278°
2026-04-26 14:02 24.19993 54.83038 29799 ft 468 kts 277°
2026-04-26 14:02 24.20877 54.75961 29857 ft 472 kts 277°
2026-04-26 14:03 24.21756 54.68844 29861 ft 477 kts 277°
2026-04-26 14:03 24.22645 54.61613 29866 ft 481 kts 277°
2026-04-26 14:04 24.23545 54.54280 29858 ft 484 kts 277°
2026-04-26 14:04 24.24436 54.46999 29862 ft 486 kts 277°
2026-04-26 14:05 24.25331 54.39650 29861 ft 488 kts 277°
2026-04-26 14:05 24.26225 54.32279 29862 ft 488 kts 277°
2026-04-26 14:06 24.27116 54.24902 29863 ft 488 kts 277°
2026-04-26 14:06 24.28004 54.17521 29865 ft 488 kts 277°
2026-04-26 14:07 24.28887 54.10152 29864 ft 488 kts 277°
2026-04-26 14:07 24.29765 54.02788 29867 ft 487 kts 277°
2026-04-26 14:08 24.30640 53.95427 29868 ft 487 kts 277°
2026-04-26 14:08 24.31510 53.88071 29874 ft 486 kts 277°
2026-04-26 14:09 24.32376 53.80719 29894 ft 486 kts 277°
2026-04-26 14:09 24.33238 53.73373 29871 ft 486 kts 277°
2026-04-26 14:10 24.34095 53.66038 29873 ft 485 kts 277°
2026-04-26 14:10 24.34947 53.58709 29874 ft 484 kts 277°
2026-04-26 14:11 24.36217 53.47731 29874 ft 484 kts 277°
2026-04-26 14:11 24.37060 53.40410 29880 ft 484 kts 277°
2026-04-26 14:12 24.37899 53.33086 29882 ft 484 kts 277°
2026-04-26 14:12 24.38730 53.25804 29883 ft 484 kts 277°
2026-04-26 14:13 24.39977 53.14808 29895 ft 484 kts 276°
2026-04-26 14:14 24.40804 53.07479 29878 ft 484 kts 276°
2026-04-26 14:14 24.41627 53.00161 29882 ft 483 kts 276°
2026-04-26 14:15 24.42445 52.92849 29884 ft 482 kts 276°
2026-04-26 14:15 24.43258 52.85547 29888 ft 482 kts 276°
2026-04-26 14:16 24.44067 52.78241 29885 ft 482 kts 276°
2026-04-26 14:16 24.44874 52.70939 29892 ft 482 kts 276°
2026-04-26 14:17 24.45676 52.63635 29893 ft 482 kts 276°
2026-04-26 14:17 24.46475 52.56333 29893 ft 482 kts 276°
2026-04-26 14:18 24.47271 52.49028 29897 ft 482 kts 276°
2026-04-26 14:18 24.48061 52.41730 29892 ft 481 kts 276°
2026-04-26 14:19 24.48848 52.34436 29892 ft 481 kts 276°
2026-04-26 14:19 24.49631 52.27150 29891 ft 481 kts 276°
2026-04-26 14:20 24.50410 52.19860 29895 ft 481 kts 276°
2026-04-26 14:20 24.51187 52.12565 29893 ft 481 kts 276°
2026-04-26 14:21 24.51955 52.05310 29893 ft 481 kts 276°
2026-04-26 14:21 24.52725 51.98008 29894 ft 482 kts 276°
2026-04-26 14:22 24.53491 51.90704 29896 ft 482 kts 276°
2026-04-26 14:22 24.54255 51.83394 29900 ft 481 kts 276°
2026-04-26 14:23 24.55013 51.76100 29896 ft 481 kts 276°
2026-04-26 14:23 24.55767 51.68813 29906 ft 480 kts 276°
2026-04-26 14:24 24.56517 51.61526 29900 ft 480 kts 276°
2026-04-26 14:24 24.57263 51.54251 29905 ft 480 kts 276°
2026-04-26 14:25 24.58006 51.46964 29903 ft 480 kts 276°
2026-04-26 14:25 24.58745 51.39684 29906 ft 480 kts 276°
2026-04-26 14:26 24.59481 51.32392 29902 ft 480 kts 276°
2026-04-26 14:26 24.60297 51.25123 29907 ft 480 kts 279°
2026-04-26 14:27 24.61997 51.18045 29904 ft 479 kts 285°
2026-04-26 14:27 24.63831 51.11023 29903 ft 477 kts 284°
2026-04-26 14:28 24.65622 51.04008 29907 ft 477 kts 284°
2026-04-26 14:28 24.67398 50.96994 29908 ft 476 kts 284°
2026-04-26 14:29 24.69173 50.89973 29908 ft 477 kts 284°
2026-04-26 14:29 24.70947 50.82943 29923 ft 477 kts 284°
2026-04-26 14:30 24.72719 50.75911 29916 ft 477 kts 284°
2026-04-26 14:30 24.74475 50.68929 29918 ft 476 kts 284°
2026-04-26 14:31 24.76249 50.61860 29915 ft 476 kts 284°
2026-04-26 14:31 24.77996 50.54884 29923 ft 476 kts 284°
2026-04-26 14:32 24.79750 50.47865 29925 ft 475 kts 284°
2026-04-26 14:32 24.81499 50.40851 29924 ft 475 kts 284°
2026-04-26 14:33 24.83244 50.33836 29933 ft 475 kts 283°
2026-04-26 14:33 24.84982 50.26837 29930 ft 473 kts 283°
2026-04-26 14:34 24.86713 50.19850 29930 ft 473 kts 283°
2026-04-26 14:34 24.88438 50.12868 29925 ft 472 kts 283°
2026-04-26 14:35 24.90161 50.05881 29938 ft 473 kts 283°
2026-04-26 14:35 24.91881 49.98895 29931 ft 473 kts 283°
2026-04-26 14:36 24.93599 49.91900 29925 ft 474 kts 283°
2026-04-26 14:36 24.95316 49.84890 29929 ft 474 kts 283°
2026-04-26 14:37 24.97032 49.77874 29929 ft 475 kts 283°
2026-04-26 14:37 24.98749 49.70838 29918 ft 476 kts 283°
2026-04-26 14:38 25.00466 49.63783 29928 ft 477 kts 283°
2026-04-26 14:38 25.02184 49.56709 29923 ft 479 kts 283°
2026-04-26 14:39 25.03902 49.49622 29914 ft 478 kts 283°
2026-04-26 14:39 25.05612 49.42551 29916 ft 476 kts 283°
2026-04-26 14:40 25.07311 49.35509 29918 ft 475 kts 283°
2026-04-26 14:40 25.09005 49.28474 29913 ft 474 kts 283°
2026-04-26 14:41 25.10693 49.21446 29927 ft 474 kts 283°
2026-04-26 14:41 25.12379 49.14407 29940 ft 475 kts 283°
2026-04-26 14:42 25.14066 49.07353 29920 ft 475 kts 282°
2026-04-26 14:42 25.15738 49.00347 29926 ft 475 kts 282°
2026-04-26 14:43 25.17417 48.93292 29923 ft 475 kts 282°
2026-04-26 14:43 25.19091 48.86247 29926 ft 475 kts 282°
2026-04-26 14:44 25.20763 48.79190 29933 ft 475 kts 282°
2026-04-26 14:44 25.22160 48.73281 29930 ft 475 kts 282°
2026-04-26 14:45 25.23825 48.66229 29932 ft 474 kts 282°
2026-04-26 14:45 25.25481 48.59194 29929 ft 472 kts 282°
2026-04-26 14:46 25.27128 48.52182 29938 ft 471 kts 282°
2026-04-26 14:46 25.28760 48.45219 29939 ft 471 kts 282°
2026-04-26 14:47 25.30399 48.38210 29945 ft 471 kts 282°
2026-04-26 14:47 25.32033 48.31203 29974 ft 471 kts 282°
2026-04-26 14:48 25.33661 48.24209 29952 ft 469 kts 282°
2026-04-26 14:48 25.35280 48.17239 29947 ft 467 kts 282°
2026-04-26 14:49 25.36891 48.10289 29955 ft 466 kts 282°
2026-04-26 14:49 25.38497 48.03340 29959 ft 466 kts 282°
2026-04-26 14:50 25.40098 47.96396 29964 ft 466 kts 282°
2026-04-26 14:50 25.41697 47.89446 29974 ft 466 kts 282°
2026-04-26 14:51 25.43290 47.82510 29960 ft 465 kts 282°
2026-04-26 14:51 25.44877 47.75581 29956 ft 465 kts 282°
2026-04-26 14:52 25.46462 47.68643 29966 ft 465 kts 282°
2026-04-26 14:52 25.48045 47.61698 29969 ft 465 kts 282°
2026-04-26 14:53 25.49624 47.54754 29977 ft 465 kts 282°
2026-04-26 14:53 25.51201 47.47809 29971 ft 465 kts 282°
2026-04-26 14:54 25.52775 47.40855 29980 ft 466 kts 282°
2026-04-26 14:54 25.54347 47.33892 29982 ft 466 kts 282°
2026-04-26 14:55 25.55916 47.26933 29990 ft 466 kts 282°
2026-04-26 14:55 25.57480 47.19973 29979 ft 465 kts 282°
2026-04-26 14:56 25.59041 47.13015 30003 ft 465 kts 282°
2026-04-26 14:56 25.60599 47.06051 29989 ft 467 kts 282°
2026-04-26 14:57 25.62148 46.99109 29991 ft 467 kts 282°
2026-04-26 14:57 25.63706 46.92114 29993 ft 467 kts 282°
2026-04-26 14:58 25.65258 46.85128 29988 ft 467 kts 282°
2026-04-26 14:58 25.66805 46.78149 29984 ft 466 kts 282°
2026-04-26 14:59 25.68346 46.71176 29993 ft 466 kts 281°
2026-04-26 14:59 25.69886 46.64193 29993 ft 466 kts 281°
2026-04-26 15:00 25.71424 46.57201 29993 ft 467 kts 282°
2026-04-26 15:00 25.72956 46.50222 29997 ft 464 kts 282°
2026-04-26 15:01 25.74473 46.43297 29985 ft 462 kts 282°
2026-04-26 15:01 25.75982 46.36387 29997 ft 460 kts 281°
2026-04-26 15:02 25.77484 46.29493 29984 ft 460 kts 281°
2026-04-26 15:02 25.78981 46.22605 29988 ft 460 kts 281°
2026-04-26 15:03 25.80478 46.15700 29990 ft 460 kts 281°
2026-04-26 15:03 25.81964 46.08827 29987 ft 461 kts 281°
2026-04-26 15:04 25.83457 46.01906 29988 ft 462 kts 281°
2026-04-26 15:04 25.84954 45.94952 29990 ft 463 kts 281°
2026-04-26 15:05 25.86456 45.87957 29988 ft 463 kts 281°
2026-04-26 15:05 25.87938 45.81040 29993 ft 464 kts 281°
2026-04-26 15:06 25.89424 45.74086 30000 ft 463 kts 281°
2026-04-26 15:06 25.90907 45.67129 29992 ft 462 kts 281°
2026-04-26 15:07 25.93118 45.56722 29997 ft 462 kts 281°
2026-04-26 15:07 25.94587 45.49786 29993 ft 462 kts 281°
2026-04-26 15:08 25.96055 45.42838 29994 ft 462 kts 280°
2026-04-26 15:08 25.97517 45.35899 29983 ft 462 kts 280°
2026-04-26 15:09 25.98982 45.28925 29995 ft 464 kts 280°
2026-04-26 15:09 26.00448 45.21936 29995 ft 465 kts 280°
2026-04-26 15:10 26.01667 45.16110 29986 ft 466 kts 280°
2026-04-26 15:10 26.03381 45.07894 29982 ft 467 kts 280°
2026-04-26 15:11 26.04848 45.00846 29980 ft 467 kts 280°
2026-04-26 15:11 26.06300 44.93851 29983 ft 467 kts 280°
2026-04-26 15:12 26.07766 44.86770 29974 ft 467 kts 280°
2026-04-26 15:12 26.09216 44.79749 29970 ft 466 kts 280°
2026-04-26 15:13 26.10663 44.72719 29968 ft 465 kts 280°
2026-04-26 15:13 26.12095 44.65747 29969 ft 465 kts 280°
2026-04-26 15:14 26.13530 44.58743 29977 ft 465 kts 280°
2026-04-26 15:14 26.14965 44.51718 29971 ft 465 kts 280°
2026-04-26 15:15 26.16394 44.44706 29969 ft 465 kts 280°
2026-04-26 15:15 26.17823 44.37675 29979 ft 465 kts 279°
2026-04-26 15:16 26.19249 44.30640 29973 ft 465 kts 279°
2026-04-26 15:16 26.20669 44.23619 29972 ft 465 kts 279°
2026-04-26 15:17 26.21847 44.17776 29966 ft 466 kts 279°
2026-04-26 15:17 26.23500 44.09560 29965 ft 465 kts 279°
2026-04-26 15:18 26.24907 44.02547 29977 ft 464 kts 279°
2026-04-26 15:18 26.26312 43.95521 29962 ft 465 kts 279°
2026-04-26 15:19 26.27706 43.88535 29971 ft 465 kts 279°
2026-04-26 15:19 26.29278 43.81482 29956 ft 469 kts 285°
2026-04-26 15:20 26.31740 43.74768 29971 ft 474 kts 291°
2026-04-26 15:20 26.35008 43.68330 29974 ft 479 kts 296°
2026-04-26 15:21 26.38522 43.62018 29983 ft 479 kts 296°
2026-04-26 15:21 26.42028 43.55681 29983 ft 480 kts 296°
2026-04-26 15:22 26.45470 43.49300 29967 ft 480 kts 295°
2026-04-26 15:22 26.48820 43.42871 29979 ft 480 kts 295°
2026-04-26 15:23 26.52170 43.36418 29974 ft 480 kts 295°
2026-04-26 15:23 26.55521 43.29983 29988 ft 480 kts 295°
2026-04-26 15:24 26.58887 43.23528 29980 ft 480 kts 295°
2026-04-26 15:24 26.62239 43.17095 29987 ft 480 kts 295°
2026-04-26 15:25 26.65023 43.11743 29986 ft 479 kts 295°
2026-04-26 15:25 26.68938 43.04206 29982 ft 479 kts 295°
2026-04-26 15:26 26.72285 42.97753 29985 ft 478 kts 295°
2026-04-26 15:26 26.75613 42.91327 29986 ft 478 kts 295°
2026-04-26 15:27 26.78942 42.84888 29981 ft 477 kts 295°
2026-04-26 15:27 26.82256 42.78469 29989 ft 477 kts 295°
2026-04-26 15:28 26.85578 42.72024 29992 ft 477 kts 295°
2026-04-26 15:28 26.88873 42.65624 29992 ft 477 kts 295°
2026-04-26 15:29 26.92209 42.59135 30002 ft 478 kts 295°
2026-04-26 15:30 26.98827 42.46234 29995 ft 477 kts 295°
2026-04-26 15:30 27.02101 42.39836 30018 ft 476 kts 295°
2026-04-26 15:31 27.06500 42.31226 30001 ft 475 kts 295°
2026-04-26 15:32 27.10866 42.22662 30008 ft 475 kts 295°
2026-04-26 15:32 27.14699 42.15140 29989 ft 474 kts 295°
2026-04-26 15:33 27.17969 42.08702 30009 ft 474 kts 295°
2026-04-26 15:33 27.21207 42.02311 30008 ft 474 kts 295°
2026-04-26 15:34 27.24493 41.95824 30018 ft 475 kts 295°
2026-04-26 15:34 27.27735 41.89417 30014 ft 475 kts 295°
2026-04-26 15:35 27.30994 41.82967 30021 ft 475 kts 294°
2026-04-26 15:35 27.34256 41.76500 30033 ft 475 kts 295°
2026-04-26 15:36 27.37509 41.70040 30024 ft 476 kts 295°
2026-04-26 15:36 27.40770 41.63555 30029 ft 475 kts 294°
2026-04-26 15:37 27.44046 41.57031 30020 ft 475 kts 294°
2026-04-26 15:37 27.47274 41.50593 30026 ft 475 kts 294°
2026-04-26 15:38 27.50543 41.44064 30028 ft 475 kts 294°
2026-04-26 15:38 27.53779 41.37588 30032 ft 475 kts 294°
2026-04-26 15:39 27.57020 41.31094 30015 ft 475 kts 294°
2026-04-26 15:39 27.59703 41.25709 30022 ft 474 kts 294°
2026-04-26 15:40 27.63464 41.18154 30024 ft 472 kts 294°
2026-04-26 15:40 27.66666 41.11708 30049 ft 472 kts 294°
2026-04-26 15:41 27.69872 41.05244 30022 ft 471 kts 294°
2026-04-26 15:41 27.73049 40.98827 30020 ft 471 kts 294°
2026-04-26 15:42 27.76263 40.92326 30023 ft 471 kts 294°
2026-04-26 15:42 27.79436 40.85900 30023 ft 471 kts 294°
2026-04-26 15:43 27.82622 40.79440 30017 ft 471 kts 294°
2026-04-26 15:44 27.87396 40.69739 30015 ft 471 kts 294°
2026-04-26 15:44 27.92164 40.60028 30023 ft 471 kts 294°
2026-04-26 15:45 27.96926 40.50303 30018 ft 472 kts 294°
2026-04-26 15:46 28.01696 40.40543 30027 ft 472 kts 294°
2026-04-26 15:46 28.04332 40.35140 30026 ft 472 kts 294°
2026-04-26 15:47 28.09621 40.24275 30035 ft 472 kts 294°
2026-04-26 15:48 28.12783 40.17767 30023 ft 472 kts 294°
2026-04-26 15:48 28.15951 40.11236 30022 ft 472 kts 294°
2026-04-26 15:49 28.19112 40.04708 30018 ft 472 kts 294°
2026-04-26 15:49 28.22262 39.98195 30035 ft 472 kts 294°
2026-04-26 15:50 28.25409 39.91676 30020 ft 472 kts 294°
2026-04-26 15:50 28.28561 39.85139 30031 ft 472 kts 293°
2026-04-26 15:51 28.31704 39.78606 30032 ft 473 kts 293°
2026-04-26 15:51 28.34858 39.72042 30021 ft 473 kts 293°
2026-04-26 15:52 28.38011 39.65469 30201 ft 474 kts 293°
2026-04-26 15:52 28.39584 39.62192 30497 ft 471 kts 293°
2026-04-26 15:52 28.41142 39.58942 30858 ft 466 kts 293°
2026-04-26 15:52 28.42165 39.56808 31100 ft 464 kts 293°
2026-04-26 15:53 28.44194 39.52565 31485 ft 460 kts 293°
2026-04-26 15:53 28.45720 39.49370 31703 ft 459 kts 292°
2026-04-26 15:53 28.47237 39.46189 31915 ft 458 kts 292°
2026-04-26 15:53 28.48750 39.43015 32121 ft 457 kts 292°
2026-04-26 15:54 28.50257 39.39852 32380 ft 454 kts 292°
2026-04-26 15:54 28.51765 39.36686 32634 ft 452 kts 292°
2026-04-26 15:54 28.53256 39.33551 32859 ft 451 kts 292°
2026-04-26 15:54 28.54746 39.30419 33045 ft 450 kts 292°
2026-04-26 15:55 28.56228 39.27300 33335 ft 447 kts 292°
2026-04-26 15:55 28.57702 39.24198 33721 ft 442 kts 292°
2026-04-26 15:55 28.59151 39.21147 34023 ft 438 kts 292°
2026-04-26 15:56 28.62030 39.15070 33989 ft 434 kts 292°
2026-04-26 15:56 28.64886 39.09029 34002 ft 434 kts 292°
2026-04-26 15:57 28.67744 39.02971 33999 ft 436 kts 292°
2026-04-26 15:57 28.70617 38.96877 33990 ft 437 kts 292°
2026-04-26 15:58 28.73492 38.90776 33980 ft 438 kts 292°
2026-04-26 15:58 28.76356 38.84686 33988 ft 439 kts 292°
2026-04-26 15:59 28.79234 38.78559 33980 ft 439 kts 292°
2026-04-26 15:59 28.82110 38.72427 33974 ft 438 kts 292°
2026-04-26 16:00 28.84975 38.66311 33979 ft 437 kts 291°
2026-04-26 16:00 28.87839 38.60185 33981 ft 437 kts 291°
2026-04-26 16:01 28.90686 38.54083 33982 ft 436 kts 291°
2026-04-26 16:01 28.93533 38.47976 33975 ft 435 kts 291°
2026-04-26 16:02 28.96366 38.41887 33975 ft 434 kts 291°
2026-04-26 16:02 28.99200 38.35789 33951 ft 434 kts 291°
2026-04-26 16:03 29.02022 38.29706 33969 ft 434 kts 291°
2026-04-26 16:03 29.04852 38.23596 33954 ft 435 kts 291°
2026-04-26 16:04 29.07674 38.17493 33994 ft 435 kts 291°
2026-04-26 16:04 29.10504 38.11366 33958 ft 435 kts 291°
2026-04-26 16:05 29.13320 38.05262 33948 ft 434 kts 291°
2026-04-26 16:05 29.16134 37.99151 33946 ft 433 kts 291°
2026-04-26 16:06 29.18934 37.93059 33960 ft 433 kts 292°
2026-04-26 16:06 29.21740 37.86945 33948 ft 433 kts 292°
2026-04-26 16:07 29.24524 37.80871 33947 ft 434 kts 292°
2026-04-26 16:07 29.27344 37.74706 33946 ft 434 kts 292°
2026-04-26 16:08 29.30126 37.68618 33948 ft 435 kts 292°
2026-04-26 16:08 29.32926 37.62480 33940 ft 435 kts 292°
2026-04-26 16:09 29.35733 37.56319 33946 ft 436 kts 292°
2026-04-26 16:09 29.38531 37.50165 33945 ft 436 kts 292°
2026-04-26 16:10 29.41337 37.43986 33951 ft 437 kts 291°
2026-04-26 16:10 29.44137 37.37810 33949 ft 437 kts 291°
2026-04-26 16:11 29.46942 37.31613 33938 ft 437 kts 291°
2026-04-26 16:11 29.49737 37.25428 33942 ft 437 kts 291°
2026-04-26 16:12 29.52535 37.19227 33949 ft 437 kts 291°
2026-04-26 16:12 29.56729 37.09914 33936 ft 437 kts 291°
2026-04-26 16:13 29.59516 37.03712 33927 ft 437 kts 291°
2026-04-26 16:13 29.62303 36.97498 33974 ft 436 kts 291°
2026-04-26 16:14 29.65081 36.91303 33927 ft 436 kts 291°
2026-04-26 16:15 29.69238 36.82005 33905 ft 435 kts 291°
2026-04-26 16:15 29.71998 36.75817 33913 ft 435 kts 291°
2026-04-26 16:16 29.76311 36.66633 33905 ft 442 kts 297°
2026-04-26 16:16 29.79868 36.60772 33938 ft 444 kts 298°
2026-04-26 16:17 29.83383 36.54968 33901 ft 445 kts 297°
2026-04-26 16:17 29.86909 36.49112 33906 ft 446 kts 297°
2026-04-26 16:18 29.92208 36.40278 33876 ft 447 kts 297°
2026-04-26 16:19 29.97509 36.31418 33878 ft 448 kts 297°
2026-04-26 16:20 30.02233 36.23507 33873 ft 448 kts 297°
2026-04-26 16:20 30.07542 36.14597 33890 ft 449 kts 297°
2026-04-26 16:21 30.11084 36.08641 33892 ft 450 kts 297°
2026-04-26 16:21 30.14604 36.02714 33893 ft 451 kts 297°
2026-04-26 16:22 30.18172 35.96699 33893 ft 451 kts 297°
2026-04-26 16:22 30.21692 35.90755 33901 ft 451 kts 297°
2026-04-26 16:23 30.25234 35.84764 33912 ft 451 kts 297°
2026-04-26 16:23 30.28772 35.78773 33948 ft 451 kts 296°
2026-04-26 16:24 30.32311 35.72763 33936 ft 453 kts 297°
2026-04-26 16:24 30.35863 35.66733 33930 ft 454 kts 297°
2026-04-26 16:25 30.39421 35.60680 33941 ft 455 kts 297°
2026-04-26 16:25 30.42982 35.54611 33946 ft 456 kts 297°
2026-04-26 16:26 30.46550 35.48523 33951 ft 457 kts 297°
2026-04-26 16:26 30.50126 35.42409 33948 ft 459 kts 297°
2026-04-26 16:27 30.53711 35.36272 33942 ft 460 kts 297°
2026-04-26 16:27 30.57300 35.30120 33934 ft 460 kts 297°
2026-04-26 16:28 30.60886 35.23964 33962 ft 460 kts 297°
2026-04-26 16:28 30.64469 35.17803 33928 ft 460 kts 297°
2026-04-26 16:29 30.68043 35.11648 33914 ft 459 kts 297°
2026-04-26 16:29 30.71597 35.05516 33929 ft 457 kts 296°
2026-04-26 16:30 30.75148 34.99380 33932 ft 457 kts 296°
2026-04-26 16:30 30.78693 34.93247 33936 ft 456 kts 296°
2026-04-26 16:31 30.82194 34.87181 33932 ft 454 kts 296°
2026-04-26 16:31 30.85712 34.81074 33941 ft 453 kts 296°
2026-04-26 16:32 30.88649 34.75968 33947 ft 453 kts 296°
2026-04-26 16:32 30.92717 34.68882 33957 ft 454 kts 296°
2026-04-26 16:33 30.96221 34.62770 33953 ft 455 kts 296°
2026-04-26 16:33 30.99741 34.56622 33947 ft 456 kts 296°
2026-04-26 16:34 31.03251 34.50481 33953 ft 456 kts 296°
2026-04-26 16:34 31.06768 34.44319 33961 ft 457 kts 296°
2026-04-26 16:35 31.10294 34.38130 33960 ft 458 kts 296°
2026-04-26 16:35 31.13830 34.31916 33967 ft 459 kts 296°
2026-04-26 16:36 31.17356 34.25709 33971 ft 460 kts 296°
2026-04-26 16:36 31.20886 34.19484 33967 ft 460 kts 297°
2026-04-26 16:37 31.24425 34.13234 33967 ft 461 kts 297°
2026-04-26 16:37 31.27374 34.08019 33994 ft 462 kts 296°
2026-04-26 16:38 31.31513 34.00686 33974 ft 464 kts 296°
2026-04-26 16:38 31.35069 33.94375 34007 ft 464 kts 297°
2026-04-26 16:39 31.38601 33.88097 33979 ft 465 kts 297°
2026-04-26 16:39 31.42154 33.81772 33975 ft 465 kts 297°
2026-04-26 16:40 31.45710 33.75431 33975 ft 465 kts 297°
2026-04-26 16:40 31.49282 33.69051 33970 ft 465 kts 296°
2026-04-26 16:41 31.52803 33.62751 33974 ft 465 kts 296°
2026-04-26 16:41 31.56348 33.56399 33972 ft 465 kts 296°
2026-04-26 16:42 31.59878 33.50062 33972 ft 465 kts 296°
2026-04-26 16:42 31.63405 33.43719 33973 ft 464 kts 296°
2026-04-26 16:43 31.66934 33.37362 33977 ft 464 kts 296°
2026-04-26 16:43 31.70459 33.31002 33972 ft 464 kts 296°
2026-04-26 16:44 31.73973 33.24653 33972 ft 464 kts 296°
2026-04-26 16:44 31.77485 33.18296 33997 ft 464 kts 296°
2026-04-26 16:45 31.81127 33.11978 33970 ft 471 kts 301°
2026-04-26 16:45 31.85556 33.06196 33979 ft 478 kts 307°
2026-04-26 16:46 31.90157 33.00545 33969 ft 479 kts 307°
2026-04-26 16:46 31.94762 32.94845 33969 ft 480 kts 306°
2026-04-26 16:47 31.99347 32.89127 33967 ft 481 kts 306°
2026-04-26 16:47 32.03938 32.83381 33973 ft 481 kts 307°
2026-04-26 16:48 32.08498 32.77667 33964 ft 481 kts 307°
2026-04-26 16:48 32.13078 32.71921 33964 ft 481 kts 307°
2026-04-26 16:49 32.17668 32.66152 33964 ft 482 kts 307°
2026-04-26 16:49 32.22247 32.60388 33980 ft 482 kts 307°
2026-04-26 16:50 32.26827 32.54615 33965 ft 482 kts 307°
2026-04-26 16:50 32.31417 32.48820 33957 ft 482 kts 307°
2026-04-26 16:51 32.36001 32.43023 33962 ft 482 kts 307°
2026-04-26 16:51 32.40567 32.37239 33958 ft 482 kts 307°
2026-04-26 16:52 32.44361 32.32426 33967 ft 481 kts 307°
2026-04-26 16:52 32.49698 32.25645 33953 ft 481 kts 307°
2026-04-26 16:53 32.54266 32.19830 33959 ft 481 kts 308°
2026-04-26 16:53 32.58820 32.14023 33956 ft 482 kts 308°
2026-04-26 16:54 32.63403 32.08199 33952 ft 483 kts 309°
2026-04-26 16:54 32.68272 32.02677 33961 ft 486 kts 312°
2026-04-26 16:55 32.73246 31.97216 33955 ft 487 kts 312°
2026-04-26 16:55 32.78174 31.91781 33949 ft 487 kts 312°
2026-04-26 16:56 32.85622 31.83494 33966 ft 487 kts 312°
2026-04-26 16:57 32.90534 31.78004 33959 ft 488 kts 313°
2026-04-26 16:57 32.97977 31.69674 33949 ft 490 kts 312°
2026-04-26 16:58 33.01295 31.65954 33944 ft 491 kts 313°
2026-04-26 16:59 33.10400 31.55727 33939 ft 491 kts 312°
2026-04-26 17:00 33.20352 31.44513 33930 ft 493 kts 313°
2026-04-26 17:00 33.27847 31.36043 33949 ft 495 kts 313°
2026-04-26 17:01 33.32857 31.30371 33928 ft 496 kts 313°
2026-04-26 17:01 33.37861 31.24696 33927 ft 497 kts 313°
2026-04-26 17:02 33.42843 31.19034 33951 ft 497 kts 313°
2026-04-26 17:02 33.47893 31.13288 33931 ft 498 kts 313°
2026-04-26 17:03 33.52882 31.07600 33932 ft 499 kts 313°
2026-04-26 17:03 33.57940 31.01824 33936 ft 499 kts 313°
2026-04-26 17:04 33.62934 30.96113 33945 ft 500 kts 313°
2026-04-26 17:04 33.67971 30.90341 33942 ft 500 kts 313°
2026-04-26 17:05 33.73000 30.84569 33935 ft 501 kts 313°
2026-04-26 17:05 33.78030 30.78787 33932 ft 501 kts 313°
2026-04-26 17:06 33.83071 30.72981 33933 ft 501 kts 313°
2026-04-26 17:06 33.87290 30.68114 33938 ft 501 kts 314°